Flag for Canada Weather past 2 weeks in Victoria, British Columbia, Canada

Now
48 °F

Sprinkles. Partly sunny.


Feels Like: 45 °F
Forecast: 46 / 49 °F
Wind: 8 mph from Southeast

Location: Victoria Int. Airportb. C.

Current Time: Dec 19, 2014 at 1:25:59 PM

Latest Report: Dec 19, 2014 at 1:00 PM


Visibility: 30 mi

Pressure: 29.89 "Hg

Humidity: 87%

Dew point: 45 °F

Location of VictoriaLocation

Historic Weather in Victoria — Graph

°F

Victoria temperature yesterday

Maximum temperature yesterday: 50 °F (at 5:00 PM)
Minimum temperature yesterday: 43 °F (at 12:00 AM)
Average temperature yesterday: 46 °F

Past Weeks' High & Low Weather Summary

 TemperatureHumidityPressure
High61 °F (Dec 9, 12:00 PM)100% (Dec 4, 9:00 PM)30.26 "Hg (Dec 4, 9:00 PM)
Low30 °F (Dec 15, 2:00 AM)63% (Dec 9, 12:00 PM)29.10 "Hg (Dec 11, 8:00 PM)
Average45 °F91%29.83 "Hg
* Reported Dec 4 12:00 Noon — Dec 19 12:00 Noon, Victoria, Weather by CustomWeather, © 2014

Note: Actual official high and low records may vary slightly from our data, if they occured in-between our weather recording intervals... More about our weather records

Advertising

Victoria weather history for previous 24 hours

 ConditionsComfort  
Time TempWeatherWind HumidityBarometerVisibility
12:00 PM
Dec 19
48 °FBroken clouds.9 mph87%29.90 "Hg30 mi
11:51 AM46 °FBroken clouds.8 mph93%29.89 "Hg30 mi
11:00 AM46 °FLight rain. Broken clouds.9 mph87%29.90 "Hg30 mi
10:00 AM46 °FBroken clouds.5 mph87%29.87 "Hg30 mi
9:00 AM43 °FPassing clouds.10 mph87%29.83 "Hg30 mi
8:00 AM41 °FPassing clouds.8 mph93%29.81 "Hg30 mi
7:00 AM45 °FLight rain. Overcast.10 mph87%29.82 "Hg15 mi
6:00 AM46 °FPartly cloudy.15 mph76%29.77 "Hg20 mi
5:00 AM41 °FPartly cloudy.5 mph93%29.76 "Hg20 mi
4:00 AM45 °FPartly cloudy.No wind93%29.76 "Hg20 mi
3:00 AM45 °FPartly cloudy.2 mph93%29.75 "Hg20 mi
2:00 AM46 °FPartly cloudy.3 mph93%29.74 "Hg15 mi
1:00 AM48 °FOvercast.No wind82%29.72 "Hg20 mi
12:00 AM50 °FMostly cloudy.7 mph76%29.68 "Hg20 mi
11:00 PM
Dec 18
48 °FOvercast.5 mph87%29.67 "Hg20 mi
10:00 PM48 °FLight rain. Mostly cloudy.12 mph94%29.66 "Hg20 mi
9:00 PM48 °FLight rain. Mostly cloudy.20 mph94%29.64 "Hg30 mi
8:00 PM50 °FLight rain. Mostly cloudy.16 mph88%29.63 "Hg20 mi
7:00 PM48 °FLight rain. Mostly cloudy.15 mph94%29.66 "Hg15 mi
6:00 PM48 °FLight rain. Overcast.14 mph94%29.67 "Hg20 mi
5:00 PM50 °FPassing clouds.14 mph82%29.68 "Hg30 mi
4:00 PM48 °FLight rain. Mostly cloudy.14 mph82%29.70 "Hg20 mi
3:04 PM48 °FLight rain. Mostly cloudy.12 mph82%29.74 "Hg30 mi
3:00 PM48 °FMostly cloudy.14 mph82%29.73 "Hg30 mi
2:00 PM48 °FMostly cloudy.10 mph82%29.76 "Hg30 mi
1:00 PM48 °FLight rain. Mostly cloudy.8 mph82%29.80 "Hg30 mi
Weather by CustomWeather, © 2014

See weather overviewHow to use our weather pages